Location: D�derode
(51.8092°N, 10.1065°E)
Time: 06:12:24
(UTC+00:00)

Lacrosse 5 rocket - Pass Details

Date: 01 December 2020
Orbit: 461 x 634 km, 57.0° (Epoch: 23 January)

Event Time Altitude Azimuth Distance (km) Brightness Sun altitude
Rises 16:43:32 0° 236° (SW) 2,527 6.3 -13.3°
Reaches altitude 10° 16:45:42 10° 235° (SW) 1,634 5.0 -13.6°
Maximum altitude 16:49:21 81° 150° (SSE) 476 0.9 -14.2°
Enters shadow 16:51:08 28° 64° (ENE) 905 1.8 -14.4°
